Вернуться в каталог

ARIANE 5 R/B

АктивенGTO
NORAD 26612·ROCKET BODY·🇫🇷 France

Запущен Nov 16, 2000 с Guiana Space Centre

Loading…

TLE

УстаревающийSource: Space-Track

Эпоха: Sep 14, 2026, 09:49 UTC

1 26612U 00072E   26257.40962731 -.00000354  00000-0  31141-2 0  9995
2 26612   6.9916  25.0191 7343987 149.1719 290.6073  2.01791515190436

Отслеживайте ARIANE 5 R/B в реальном времени с AllMySat

Download on the App Store